Wind_Speed
4 3 0 4 4 5 3 6 2 4 2 4 3 5 7 5 7 5 10 29 23 32 33 30 29 27 26 25 24 22 21 20 21 22 23 22 22 21 20 19 18 18 17 16 15 14 14 15 17
6 3 4 2 4 2 5 4 7 3 5 10 6 3 5 7 5 2 12 23 28 35 34 32 30 28 28 26 26 24 22 22 22 22 22 22 21 21 20 19 18 17 16 15 15 15 15 17 16
7 4 3 4 3 5 5 3 5 6 10 4 6 3 2 3 1 9 7 26 33 35 35 34 32 30 29 28 27 27 25 23 22 22 22 21 21 21 19 18 16 16 15 14 14 15 16 16 17
3 5 4 4 6 6 5 2 5 11 3 2 6 6 6 2 4 21 18 29 35 37 36 34 33 32 31 30 29 28 27 26 24 23 22 22 21 20 19 17 15 15 15 14 15 16 17 17 19
5 3 4 1 6 6 4 5 6 6 7 6 6 8 4 4 5 14 29 34 39 37 35 33 32 32 31 31 30 29 28 27 26 24 23 23 21 20 18 17 15 15 16 15 16 18 18 19 20
4 3 3 3 7 6 3 6 3 3 6 9 8 9 5 18 6 18 33 37 38 37 36 35 34 32 31 30 30 29 29 28 27 26 24 24 22 20 19 17 16 15 17 15 17 19 19 20 21
6 4 5 4 6 7 2 2 1 4 5 4 6 8 6 11 15 13 31 34 34 34 35 35 34 33 31 31 30 29 28 28 27 26 26 25 24 22 20 18 16 17 17 16 18 19 20 21 21
5 4 4 6 4 9 2 4 4 4 6 6 3 5 11 7 18 15 22 30 29 31 32 33 33 33 33 32 30 29 28 27 27 26 25 25 24 23 22 19 17 17 17 18 18 19 20 20 19
4 2 4 5 6 7 2 4 1 1 7 5 3 5 7 12 5 18 15 23 23 27 31 33 33 32 32 31 30 28 27 26 26 26 26 26 25 24 24 20 18 16 15 18 19 19 19 19 19
4 4 9 6 4 5 7 2 7 3 6 11 10 5 5 1 8 2 3 9 17 31 32 33 32 31 30 29 29 28 28 27 27 27 27 27 27 26 25 23 19 17 14 16 20 21 19 19 19
3 5 5 4 6 3 4 13 3 5 4 8 10 14 8 4 10 6 7 10 10 14 23 30 32 32 32 31 30 27 29 28 28 28 28 28 28 27 26 24 22 19 15 18 22 22 20 19 18
2 6 4 4 4 5 6 5 13 7 8 10 12 10 7 6 8 12 15 15 11 13 22 26 28 32 33 32 31 27 27 26 24 28 29 28 28 28 27 27 24 21 17 20 23 23 21 18 16
5 4 4 5 9 7 7 8 9 11 9 11 11 9 11 10 9 15 25 31 24 20 20 27 31 33 34 34 33 32 32 31 28 29 31 28 26 30 29 28 26 24 20 22 24 23 22 20 17
2 4 7 6 8 7 10 11 5 8 8 7 9 12 10 10 9 9 11 20 25 29 36 34 35 38 37 38 37 37 35 34 30 27 34 31 28 28 31 29 29 26 24 23 24 24 23 21 18
4 7 7 6 4 5 3 4 9 9 9 7 7 9 9 9 16 13 22 21 23 30 34 37 41 42 43 41 40 36 33 34 31 28 33 33 31 27 30 30 30 29 26 24 24 24 20 19 18
5 3 4 6 5 7 2 9 5 6 7 12 13 8 10 11 9 17 18 18 20 22 25 29 33 39 46 44 42 40 36 33 32 26 29 31 33 31 30 32 32 31 29 28 27 26 22 22 21
5 3 3 7 8 4 2 5 5 19 15 9 10 10 9 9 9 17 19 20 17 16 19 24 32 40 47 47 44 41 36 29 26 26 27 30 28 31 30 31 32 32 32 31 27 24 25 25 23
6 5 4 5 7 14 13 23 5 5 9 12 10 10 11 9 11 20 23 22 22 23 24 26 31 40 45 42 35 30 30 29 29 30 31 30 32 32 31 31 30 30 31 31 29 26 26 28 25
6 4 5 6 9 4 9 21 13 8 6 9 11 12 11 13 7 15 21 23 24 22 24 23 28 38 35 34 33 30 32 34 33 32 31 31 33 34 34 34 31 33 32 32 32 29 25 20 24
3 4 6 5 7 3 10 27 21 5 7 6 8 10 11 9 9 10 18 18 21 26 25 23 27 34 40 37 35 27 30 27 28 31 33 34 34 35 32 36 34 34 31 32 34 32 21 18 28
4 3 5 7 5 5 8 17 7 1 3 5 9 8 8 9 12 15 14 17 18 24 26 26 24 32 33 31 31 27 22 13 19 24 27 34 35 30 31 36 34 34 33 31 34 35 31 24 28
3 8 6 7 7 3 5 11 25 6 6 12 14 15 16 17 21 16 16 19 24 24 21 21 17 24 28 30 26 29 25 16 21 29 21 33 31 30 32 35 35 34 34 32 32 36 34 29 25
2 6 6 6 6 6 3 3 13 11 9 14 15 16 17 19 18 20 19 20 25 13 8 16 21 22 25 29 34 26 19 16 14 16 16 22 25 29 30 32 33 34 34 34 31 34 33 35 26
6 7 4 1 2 3 5 0 6 4 5 8 13 12 15 18 21 21 24 19 10 9 12 12 29 28 23 20 14 18 15 12 11 14 14 15 17 21 29 31 31 33 33 34 34 36 37 32 32
9 6 5 5 1 5 11 6 6 4 4 6 12 10 12 16 18 20 20 8 7 3 12 14 13 22 29 28 21 9 13 8 4 4 6 9 11 14 19 23 28 31 33 33 34 35 37 36 33
3 3 2 4 3 8 7 6 6 4 6 5 10 12 12 15 17 21 21 5 12 11 16 22 20 21 23 25 22 15 8 5 1 1 1 5 10 14 17 17 23 30 32 34 35 35 36 37 36
3 1 3 3 5 5 5 7 7 10 12 12 15 16 16 16 19 23 11 16 19 24 24 22 24 26 28 25 24 20 10 11 7 4 2 3 8 10 12 15 17 22 30 31 35 34 34 34 35
3 2 2 1 2 4 5 7 3 15 15 16 17 15 14 14 20 21 14 18 23 27 26 25 21 17 27 26 23 21 16 14 15 12 8 4 6 10 11 13 16 19 23 29 34 34 34 33 33
2 1 2 2 2 3 5 4 6 10 10 14 15 15 13 13 16 20 20 29 23 26 27 22 23 24 28 27 19 21 21 21 18 16 14 12 8 8 10 12 14 18 22 26 30 31 31 35 33
4 4 4 2 3 3 3 5 6 6 9 11 14 14 15 16 16 16 18 26 27 24 29 26 24 24 27 25 24 24 21 21 19 19 19 18 16 13 11 12 15 17 21 25 30 31 31 34 31
Wind_Direction
151 156 17 34 49 62 274 255 257 276 311 239 262 165 197 163 173 215 331 165 173 170 171 174 172 170 171 167 163 158 154 150 148 148 150 151 153 152 152 151 152 150 148 144 141 141 142 143 142
132 118 52 80 85 53 270 256 228 239 344 300 296 241 209 200 198 151 131 171 171 170 172 173 174 174 173 171 165 160 159 157 154 152 152 154 155 154 153 154 154 154 152 149 146 147 147 143 144
118 58 75 83 106 194 223 250 298 293 271 261 336 249 197 260 184 171 200 176 172 171 172 174 175 177 176 173 167 163 163 162 160 157 156 157 156 155 155 156 156 156 155 153 152 151 151 148 147
122 27 39 88 239 252 218 302 315 328 11 55 326 330 300 183 292 175 175 171 171 172 174 174 176 178 177 174 170 167 166 165 165 164 161 160 160 158 158 156 157 159 158 156 153 153 154 151 147
53 60 71 338 257 260 251 279 297 317 293 322 336 310 269 309 224 200 172 173 174 172 174 177 179 180 179 175 173 170 169 168 168 169 167 165 166 163 161 158 160 160 161 158 156 154 155 153 150
52 96 84 230 252 265 253 237 243 327 304 319 6 339 293 336 212 191 177 178 178 174 176 179 181 181 181 179 176 173 172 171 172 173 171 170 171 168 166 162 164 167 167 165 161 157 158 158 153
120 98 203 211 258 292 201 278 96 317 321 328 306 338 284 341 338 214 179 179 181 180 179 181 183 184 183 182 179 176 175 176 176 177 175 176 176 173 171 169 171 170 170 172 168 163 162 166 164
110 109 174 229 207 273 214 357 291 10 292 319 13 333 317 288 304 209 189 180 184 184 185 186 187 187 186 185 182 180 180 181 181 181 180 181 181 178 176 175 177 174 175 177 174 172 167 172 180
132 81 217 239 167 252 277 358 320 264 268 331 240 287 276 315 185 177 196 183 190 191 192 191 191 191 190 189 184 183 184 186 186 186 185 185 186 186 185 183 182 181 179 176 179 178 171 176 184
136 152 216 211 206 252 293 256 291 283 289 292 296 269 288 139 137 56 228 282 209 198 196 196 194 193 193 192 189 187 188 189 191 192 189 191 192 192 192 192 190 186 186 181 181 181 178 182 184
175 208 218 247 239 262 264 296 241 255 260 242 284 297 298 229 169 158 254 252 246 238 217 203 198 196 194 193 191 190 192 193 196 197 196 196 198 197 197 197 194 193 192 178 176 181 184 187 189
255 240 248 270 276 283 246 263 285 222 242 246 267 258 290 256 243 193 201 244 243 245 227 220 215 205 199 196 194 191 193 196 199 202 201 200 202 203 202 202 200 200 198 186 181 185 188 195 194
198 254 291 281 284 258 272 242 247 282 249 261 268 279 268 271 237 251 219 219 228 239 240 235 224 219 207 202 200 199 198 198 199 204 205 204 204 206 206 207 205 205 205 199 193 191 194 198 200
280 267 277 274 255 249 259 259 185 255 267 243 266 269 257 256 248 245 265 229 214 231 235 237 232 224 219 208 207 205 203 202 199 201 207 207 209 209 211 210 211 210 209 206 204 203 199 203 206
276 302 307 248 279 265 276 297 225 249 291 299 282 289 290 273 280 245 247 239 238 231 238 235 228 226 223 219 212 210 206 203 200 200 207 210 212 216 220 216 215 216 212 211 209 212 208 205 207
347 32 338 306 324 281 184 258 272 310 4 318 306 283 285 284 271 279 275 264 260 253 252 250 239 227 222 222 219 217 215 208 204 202 202 205 209 214 218 221 221 219 216 214 215 216 211 208 210
7 292 314 315 318 281 339 308 286 335 314 304 295 295 285 286 292 273 267 270 264 263 260 260 245 233 228 221 219 216 214 205 205 203 201 204 208 211 215 220 223 223 219 218 216 215 214 207 208
297 301 265 268 289 309 302 289 270 280 290 290 284 286 289 274 263 270 277 271 276 278 269 266 249 230 225 213 208 208 209 208 207 209 209 206 206 210 216 221 223 220 217 219 214 212 217 212 209
265 251 261 258 268 295 276 287 302 292 287 276 284 293 290 286 281 282 286 283 286 279 268 265 235 225 205 200 196 200 203 206 208 210 214 213 213 210 211 220 223 218 212 214 215 210 206 197 206
273 275 289 296 332 299 301 291 301 270 247 254 270 283 281 296 295 286 288 289 279 278 270 258 237 213 206 197 199 200 204 208 206 208 217 220 219 211 211 215 218 215 215 215 212 203 189 194 199
333 7 312 275 302 282 293 288 296 55 225 271 290 279 299 294 307 308 308 293 272 264 264 263 231 213 202 198 188 188 193 203 199 212 212 223 214 213 215 213 214 215 215 215 207 205 195 187 194
305 342 319 310 358 316 72 295 297 319 8 3 2 344 340 332 326 316 312 301 276 259 248 245 212 192 194 183 182 182 177 180 200 225 228 246 233 224 219 217 216 221 220 215 210 210 206 196 188
282 334 301 284 282 305 194 210 276 1 18 348 333 332 335 329 316 305 296 288 269 232 193 188 171 174 186 187 192 188 193 202 171 199 214 228 240 231 228 227 221 218 221 223 216 213 213 205 195
317 333 296 242 148 260 77 61 290 355 313 318 323 335 337 329 322 312 304 281 239 206 157 132 128 124 130 134 129 156 160 157 174 179 210 223 228 236 233 232 223 224 218 220 220 221 215 208 206
5 11 336 336 44 236 4 344 266 294 324 321 316 335 336 334 327 321 315 252 122 62 117 112 89 105 122 108 100 79 94 105 145 163 194 220 225 231 236 231 228 224 223 219 219 216 212 212 209
299 92 153 275 303 304 297 253 281 341 303 318 331 329 330 339 332 328 317 210 115 73 66 80 72 67 83 92 99 62 52 47 358 109 166 251 257 258 266 257 239 235 230 223 218 212 212 213 213
315 195 159 251 261 276 257 268 313 341 334 346 341 333 338 339 335 338 355 70 72 66 54 62 71 72 70 70 75 84 35 43 5 27 23 274 262 266 272 258 249 242 237 232 221 214 216 215 216
140 256 19 23 328 280 283 286 305 326 326 334 331 327 326 333 344 342 21 60 67 65 54 42 46 59 67 67 54 60 37 27 19 16 7 335 261 263 282 267 254 251 243 232 223 215 217 214 214
358 23 59 229 188 277 300 281 201 299 337 323 314 340 338 19 23 18 25 8 25 62 56 42 34 35 53 49 45 46 31 22 7 356 353 345 320 292 277 285 277 255 238 227 216 214 212 209 210
153 180 145 124 306 243 250 281 28 350 333 326 331 3 28 25 18 27 16 29 356 32 43 36 27 20 37 36 32 34 22 11 355 349 343 337 337 330 299 284 284 267 250 236 224 216 213 210 207
Height
776 777 778 778 803 815 814 801 784 775 768 754 753 758 760 753 763 779 735 737 740 746 752 756 759 762 766 768 771 775 778 781 783 786 787 788 790 792 795 797 798 801 803 805 807 809 810 811 812
776 777 778 790 816 823 812 792 783 770 761 754 748 747 750 750 739 736 738 738 741 744 750 755 760 762 765 767 769 772 777 780 782 784 787 789 791 793 796 798 800 802 804 806 808 810 811 812 814
777 778 788 808 829 820 808 784 779 770 762 758 753 740 741 741 733 731 733 735 739 744 748 752 757 760 764 767 768 770 774 778 782 784 787 790 792 794 797 799 801 803 805 807 809 810 812 813 815
777 780 797 812 814 804 792 779 776 767 755 752 752 755 739 731 733 728 732 736 738 742 747 751 755 759 761 764 767 769 772 776 780 783 787 790 792 795 798 800 802 805 806 808 809 811 813 815 816
779 790 812 815 811 797 785 776 771 771 766 759 756 759 747 730 731 733 731 735 738 742 747 752 755 758 761 763 766 768 771 774 778 782 786 789 792 795 798 801 803 805 807 809 810 812 814 816 818
791 797 818 820 805 788 778 769 766 767 764 761 759 759 746 739 732 733 731 734 738 739 743 749 754 758 761 764 766 768 771 774 778 781 785 788 792 795 798 800 803 805 807 809 811 813 815 817 819
792 804 812 809 800 789 774 764 766 769 767 762 757 764 751 740 740 742 734 737 741 743 746 749 753 757 761 764 767 769 771 774 778 781 784 787 790 794 797 799 802 804 807 809 812 814 816 818 820
790 797 806 804 798 791 768 767 762 765 766 756 754 765 759 741 739 742 744 740 743 745 749 752 755 758 761 763 765 768 771 775 778 781 785 788 790 793 796 799 801 804 806 809 812 815 817 818 820
784 805 812 798 796 783 768 771 761 758 763 760 755 756 748 745 741 740 748 742 744 746 748 752 755 758 761 764 765 767 771 775 778 781 784 787 790 793 796 798 801 803 806 809 812 816 818 819 821
788 808 800 787 779 777 769 770 767 765 765 759 755 751 748 746 742 745 747 751 747 744 746 751 754 758 762 765 767 768 771 774 777 781 784 786 789 792 795 798 800 803 806 808 811 816 819 820 821
786 794 786 778 775 773 774 766 762 764 768 761 759 749 745 745 741 742 746 749 751 753 755 753 754 756 759 762 765 767 770 773 776 779 782 785 788 791 794 797 799 802 804 807 810 814 817 820 822
786 781 777 776 771 773 773 765 760 762 758 751 748 745 744 743 742 736 740 745 749 751 753 756 759 757 757 760 761 763 767 771 775 777 779 783 786 789 793 795 798 801 804 806 809 813 815 819 820
783 778 775 773 773 770 766 767 763 754 749 745 744 743 741 738 738 736 732 735 743 747 749 752 755 756 755 756 757 759 761 764 769 773 777 780 783 786 791 794 797 799 803 804 807 811 814 816 818
777 777 776 772 768 764 763 758 759 752 740 743 741 739 737 735 733 735 734 731 732 735 737 742 746 750 752 750 752 753 756 760 764 768 772 776 780 783 787 791 795 797 800 803 806 809 812 814 816
776 781 775 769 764 763 756 761 758 744 743 744 742 738 735 734 730 730 730 730 729 728 729 730 732 740 745 747 747 751 753 755 759 762 767 771 775 779 784 788 792 796 798 801 803 807 810 812 815
782 783 787 769 765 757 757 759 747 741 747 746 740 738 733 729 728 726 725 725 725 726 727 729 731 732 736 741 745 746 749 753 755 759 763 767 771 774 779 784 788 792 797 798 801 803 807 809 812
793 796 789 780 765 764 762 764 748 741 745 749 745 740 735 730 726 724 721 720 720 721 721 722 723 724 726 731 737 740 744 749 753 755 757 761 768 771 773 778 783 787 792 794 797 800 803 805 809
797 797 791 790 774 766 770 750 755 753 751 748 745 740 734 730 726 718 718 718 718 717 716 715 715 715 719 724 731 738 741 743 746 748 752 756 760 766 769 773 777 783 787 790 792 796 800 801 806
793 794 795 786 774 774 769 751 751 752 751 751 745 738 734 726 721 716 713 711 711 708 706 704 705 707 711 718 722 729 731 734 738 741 747 750 754 757 762 766 771 776 778 783 787 791 796 800 802
787 790 792 782 774 773 771 744 738 747 745 741 740 738 732 726 719 711 707 706 704 699 696 695 694 698 701 706 713 721 726 730 733 737 741 744 748 747 751 759 762 768 773 778 780 783 789 792 796
790 791 794 794 781 778 774 749 740 741 738 736 735 732 731 728 723 713 706 702 698 694 688 687 684 689 694 700 706 712 723 727 732 734 735 741 740 742 745 751 755 759 765 770 772 775 779 783 789
793 794 792 789 792 796 774 775 731 741 745 747 749 747 740 733 722 714 708 700 693 687 684 682 678 685 690 695 704 704 707 717 719 729 729 740 739 739 742 746 750 752 756 762 766 769 773 776 778
795 793 792 787 793 788 782 797 733 747 763 761 757 750 743 736 731 719 708 699 691 690 687 683 677 684 689 691 695 702 707 712 713 720 723 730 733 736 739 741 743 746 749 754 758 762 767 769 772
795 793 789 785 794 799 792 795 779 775 770 764 758 751 747 740 729 717 704 694 689 690 688 689 679 681 689 693 698 703 710 711 713 712 719 723 727 730 733 736 738 739 742 746 751 755 759 762 765
801 802 808 804 794 789 785 791 779 768 764 764 755 750 746 739 731 719 704 694 688 693 689 690 692 687 686 688 698 712 706 711 715 714 716 720 721 724 727 730 732 733 735 739 744 747 751 755 759
810 811 827 828 808 806 792 796 773 766 761 758 752 749 745 737 730 718 699 690 689 696 698 694 698 697 695 692 697 708 715 716 719 716 715 716 719 720 723 724 726 728 729 733 737 740 743 747 751
808 812 809 823 810 813 792 782 769 761 754 754 751 750 745 737 730 719 703 695 697 700 705 705 704 706 701 703 705 708 725 718 721 716 715 715 718 718 719 720 721 722 723 725 729 734 736 739 743
807 810 823 832 851 828 813 793 794 768 760 760 755 754 745 740 737 723 713 707 705 704 709 714 716 717 708 710 715 713 721 721 717 715 715 716 716 715 715 716 716 717 718 720 722 726 729 733 736
816 818 819 824 824 811 798 793 777 770 772 770 761 755 744 748 746 741 736 734 728 715 716 721 720 717 712 715 722 716 717 714 718 719 717 716 714 713 712 712 711 711 712 714 715 718 722 724 728
807 817 824 839 822 817 810 794 774 777 773 769 765 762 757 757 756 749 750 736 740 731 722 726 726 724 717 719 719 713 717 718 722 721 717 714 710 709 708 707 707 706 706 709 710 711 713 717 720